Wenatchee, WA

4:02 PM PST on January 20, 2018 (GMT -0800)
Pangborn Memorial

Weather History for KEAT - September, 2014

Change the Weather History Date:

Tuesday, September 9, 2014

  Actual Average Record
Temperature  
Mean Temperature 58 °F 67 °F  
Max Temperature 75 °F 79 °F 97 °F (2011)
Min Temperature 40 °F 55 °F 42 °F (1970)
Degree Days  
Heating Degree Days 7 2  
Month to date heating degree days 54 12  
Since 1 July heating degree days 81 26  
Cooling Degree Days 0 4  
Month to date cooling degree days 0 40  
Year to date cooling degree days 397 828  
Growing Degree Days 20 (Base 50)    
Moisture  
Dew Point 41 °F    
Average Humidity 0    
Maximum Humidity 0    
Minimum Humidity 0    
Precipitation  
Precipitation 0.00 in 0.01 in 0.06 in (1985)
Month to date precipitation 0.18 0.09  
Year to date precipitation 11.94 4.81  
Snow  
Snow 0.00 in - - ()
Month to date snowfall 0.0  
Snow Depth 0.00 in    
Sea Level Pressure  
Sea Level Pressure 29.93 in    
Wind  
Wind Speed 10 mph (WNW)    
Max Wind Speed 22 mph    
Max Gust Speed 0 mph    
Visibility 10 miles    
Events      
T = Trace of Precipitation, MM = Missing Value Source: NWS Daily Summary

Daily Weather History Graph

Daily Weather History Graph

Search for Another Location

Airport or City:

Trip Planner

Search our weather history database for the weather conditions in past years. The results will help you decide how hot, cold, wet, or windy it might be!

Date:

Astronomy

Sep. 09, 2014 Rise Set
Actual Time 6:30 AM PDT 7:24 PM PDT
Civil Twilight 5:59 AM PDT 7:55 PM PDT
Nautical Twilight 5:21 AM PDT 8:33 PM PDT
Astronomical Twilight 4:42 AM PDT 9:12 PM PDT
Moon 7:40 PM PDT (9/9) 7:18 AM PDT (9/9)
Length of Visible Light 13h 56m
Length of Day
12h 54m
Full, 99% of the Moon is Illuminated
Sep 9
Full
Sep 15
Last Quarter
Sep 23
New
Oct 1
First Quarter
Oct 8
Full

Hourly Weather History & Observations

Time (PDT) Temp. Dew Point Humidity Pressure Visibility Wind Dir Wind Speed Gust Speed Precip Events Conditions
12:55 AM 64.9 °F 42.1 °F 43% 29.82 in 10.0 mi West 12.7 mph - N/A   Clear
1:55 AM 64.0 °F 42.1 °F 45% 29.83 in 10.0 mi WNW 8.1 mph - N/A   Clear
2:55 AM 64.0 °F 42.1 °F 45% 29.84 in 10.0 mi WNW 11.5 mph - N/A   Clear
3:55 AM 61.0 °F 42.1 °F 50% 29.86 in 10.0 mi NW 6.9 mph - N/A   Clear
4:55 AM 60.1 °F 42.1 °F 51% 29.87 in 10.0 mi NNW 6.9 mph - N/A   Clear
5:55 AM 59.0 °F 42.1 °F 53% 29.89 in 10.0 mi Calm Calm - N/A   Clear
6:55 AM 59.0 °F 42.1 °F 53% 29.91 in 10.0 mi NW 6.9 mph - N/A   Clear
7:55 AM 63.0 °F 42.1 °F 46% 29.94 in 10.0 mi NW 6.9 mph - N/A   Clear
8:55 AM 66.0 °F 42.1 °F 42% 29.96 in 10.0 mi NW 8.1 mph - N/A   Clear
9:55 AM 68.0 °F 42.1 °F 39% 29.96 in 10.0 mi WNW 9.2 mph - N/A   Clear
10:55 AM 72.0 °F 41.0 °F 33% 29.96 in 10.0 mi WNW 11.5 mph - N/A   Clear
12:55 PM 75.9 °F 39.9 °F 27% 29.96 in 10.0 mi West 5.8 mph - N/A   Clear
2:55 PM 79.0 °F 37.9 °F 23% 29.94 in 10.0 mi Variable 5.8 mph - N/A   Clear
3:55 PM 80.1 °F 37.0 °F 21% 29.93 in 10.0 mi Variable 5.8 mph - N/A   Clear
4:55 PM 81.0 °F 37.9 °F 21% 29.93 in 10.0 mi WNW 19.6 mph - N/A   Clear
5:55 PM 78.1 °F 36.0 °F 22% 29.93 in 10.0 mi WNW 19.6 mph - N/A   Clear
6:55 PM 75.0 °F 37.9 °F 26% 29.94 in 10.0 mi NW 21.9 mph - N/A   Clear
7:55 PM 72.0 °F 39.9 °F 31% 29.97 in 10.0 mi WNW 15.0 mph - N/A   Clear
8:55 PM 69.1 °F 41.0 °F 36% 30.00 in 10.0 mi West 13.8 mph - N/A   Partly Cloudy
9:55 PM 68.0 °F 41.0 °F 37% 30.02 in 10.0 mi West 12.7 mph - N/A   Mostly Cloudy
10:55 PM 64.9 °F 42.1 °F 43% 30.03 in 10.0 mi NW 5.8 mph - N/A   Clear
11:55 PM 64.0 °F 43.0 °F 46% 30.04 in 10.0 mi NNW 6.9 mph - N/A   Scattered Clouds